EN

Hourly Weather Lukim'ya

Today, 29 November, Sunday

Time Temperature Precipitation Wind Pressure Humidity
00:00 +5°C° 0 mm 1 mps 754 mmHg 92%
01:00 +5°C° 0 mm 1 mps 754 mmHg 92%
02:00 +5°C° 0 mm 1 mps 754 mmHg 94%
03:00 +4°C° 0.2 mm 0 mps 754 mmHg 95%
04:00 +4°C° 0.2 mm 0 mps 754 mmHg 95%
05:00 +4°C° 0.2 mm 0 mps 753 mmHg 96%
06:00 +4°C° 0.5 mm 1 mps 754 mmHg 96%
07:00 +4°C° 0.5 mm 1 mps 754 mmHg 96%
08:00 +4°C° 0 mm 1 mps 754 mmHg 95%
09:00 +4°C° 0.7 mm 1 mps 755 mmHg 95%
10:00 +4°C° 0.7 mm 1 mps 755 mmHg 95%
11:00 +4°C° 0.7 mm 1 mps 755 mmHg 95%
12:00 +4°C° 0.5 mm 1 mps 755 mmHg 95%
13:00 +4°C° 0.5 mm 1 mps 755 mmHg 95%
14:00 +4°C° 0.5 mm 1 mps 756 mmHg 95%
15:00 +4°C° 0 mm 1 mps 756 mmHg 94%
16:00 +3°C° 0 mm 0 mps 756 mmHg 93%
17:00 +3°C° 0 mm 0 mps 756 mmHg 93%
18:00 +3°C° 0 mm 0 mps 756 mmHg 93%
19:00 +3°C° 0 mm 0 mps 757 mmHg 93%
20:00 +3°C° 0 mm 0 mps 757 mmHg 93%
21:00 +3°C° 0 mm 0 mps 757 mmHg 93%
22:00 +3°C° 0 mm 1 mps 757 mmHg 93%
23:00 +3°C° 0 mm 1 mps 757 mmHg 93%

Tomorrow, 30 November, Monday

Time Temperature Precipitation Wind Pressure Humidity
00:00 +3°C° 0.1 mm 1 mps 757 mmHg 94%
01:00 +3°C° 0.1 mm 1 mps 757 mmHg 95%
02:00 +2°C° 0.1 mm 2 mps 757 mmHg 95%
03:00 +2°C° 0.2 mm 2 mps 757 mmHg 95%
04:00 +2°C° 0.2 mm 2 mps 757 mmHg 96%
05:00 +2°C° 0.2 mm 2 mps 757 mmHg 96%
06:00 +2°C° 0.1 mm 2 mps 758 mmHg 96%
07:00 +2°C° 0.1 mm 2 mps 758 mmHg 96%
08:00 +1°C° 0.1 mm 3 mps 758 mmHg 95%
09:00 0°C° 0.7 mm 3 mps 758 mmHg 95%
10:00 0°C° 0.7 mm 3 mps 758 mmHg 95%
11:00 0°C° 0.7 mm 3 mps 758 mmHg 94%
12:00 0°C° 0.5 mm 3 mps 758 mmHg 95%
13:00 -1°C° 0.5 mm 4 mps 758 mmHg 95%
14:00 -1°C° 0.5 mm 4 mps 758 mmHg 96%
15:00 -1°C° 0.7 mm 4 mps 758 mmHg 96%
16:00 -1°C° 0.7 mm 4 mps 758 mmHg 96%
17:00 -1°C° 0.7 mm 4 mps 758 mmHg 97%
18:00 -1°C° 0.6 mm 4 mps 759 mmHg 97%
19:00 -1°C° 0.6 mm 4 mps 759 mmHg 97%
20:00 -1°C° 0.6 mm 4 mps 759 mmHg 97%
21:00 -1°C° 0.5 mm 4 mps 759 mmHg 97%
22:00 -1°C° 0.5 mm 4 mps 759 mmHg 96%
23:00 -1°C° 0.5 mm 4 mps 759 mmHg 96%

Day after tomorrow, 1 December, Tuesday

Time Temperature Precipitation Wind Pressure Humidity
00:00 -1°C° 0.3 mm 4 mps 759 mmHg 96%
01:00 -1°C° 0.3 mm 4 mps 759 mmHg 95%
02:00 0°C° 0.3 mm 3 mps 759 mmHg 95%
03:00 0°C° 0.1 mm 3 mps 759 mmHg 95%
04:00 0°C° 0.1 mm 3 mps 759 mmHg 94%
05:00 +1°C° 0.1 mm 3 mps 759 mmHg 94%
06:00 +1°C° 0 mm 3 mps 759 mmHg 94%
07:00 +1°C° 0 mm 3 mps 759 mmHg 93%
08:00 +1°C° 0 mm 3 mps 759 mmHg 93%
09:00 +1°C° 0 mm 3 mps 759 mmHg 92%
10:00 +2°C° 0 mm 3 mps 759 mmHg 90%
11:00 +2°C° 0 mm 3 mps 759 mmHg 88%
12:00 +2°C° 0 mm 3 mps 759 mmHg 86%
13:00 +2°C° 0 mm 3 mps 760 mmHg 85%
14:00 +2°C° 0 mm 3 mps 760 mmHg 83%
15:00 +2°C° 0 mm 3 mps 760 mmHg 83%
16:00 +2°C° 0 mm 3 mps 760 mmHg 82%
17:00 +1°C° 0 mm 3 mps 760 mmHg 82%
18:00 +1°C° 0 mm 3 mps 760 mmHg 81%
19:00 0°C° 0 mm 4 mps 760 mmHg 80%
20:00 0°C° 0 mm 4 mps 760 mmHg 80%
21:00 0°C° 0 mm 4 mps 760 mmHg 80%
22:00 -1°C° 0 mm 4 mps 760 mmHg 81%
23:00 -1°C° 0 mm 4 mps 760 mmHg 81%

2 December, Wednesday

Time Temperature Precipitation Wind Pressure Humidity
00:00 -1°C° 0 mm 4 mps 760 mmHg 82%
01:00 -1°C° 0 mm 4 mps 760 mmHg 83%
02:00 -1°C° 0 mm 4 mps 760 mmHg 84%
03:00 -1°C° 0 mm 4 mps 760 mmHg 86%
04:00 -1°C° 0 mm 4 mps 760 mmHg 89%
05:00 -2°C° 0 mm 4 mps 760 mmHg 92%
06:00 -2°C° 0 mm 4 mps 760 mmHg 92%
07:00 -2°C° 0 mm 4 mps 760 mmHg 92%
08:00 -3°C° 0 mm 4 mps 760 mmHg 92%
09:00 -2°C° 0.1 mm 4 mps 760 mmHg 90%
10:00 -2°C° 0.1 mm 4 mps 760 mmHg 88%
11:00 -2°C° 0.1 mm 5 mps 760 mmHg 86%
12:00 -2°C° 0.1 mm 4 mps 760 mmHg 87%
13:00 -2°C° 0.1 mm 4 mps 760 mmHg 88%
14:00 -2°C° 0.1 mm 4 mps 760 mmHg 89%
15:00 -2°C° 0.1 mm 4 mps 760 mmHg 91%
16:00 -2°C° 0.1 mm 4 mps 760 mmHg 93%
17:00 -2°C° 0.1 mm 4 mps 760 mmHg 94%
18:00 -2°C° 0.3 mm 4 mps 760 mmHg 95%
19:00 -2°C° 0.3 mm 4 mps 760 mmHg 96%
20:00 -2°C° 0.3 mm 4 mps 760 mmHg 96%
21:00 -2°C° 0.2 mm 4 mps 760 mmHg 96%
22:00 -2°C° 0.2 mm 4 mps 760 mmHg 96%
23:00 -2°C° 0.2 mm 4 mps 760 mmHg 96%

3 December, Thursday

Time Temperature Precipitation Wind Pressure Humidity
00:00 -3°C° 0.1 mm 4 mps 759 mmHg 96%
01:00 -3°C° 0.1 mm 4 mps 759 mmHg 96%
02:00 -3°C° 0.1 mm 4 mps 759 mmHg 96%
03:00 -3°C° 0.3 mm 4 mps 759 mmHg 96%
04:00 -2°C° 0.3 mm 3 mps 759 mmHg 96%
05:00 -1°C° 0.3 mm 3 mps 759 mmHg 97%
06:00 -1°C° 0.1 mm 3 mps 759 mmHg 97%
07:00 -1°C° 0.1 mm 3 mps 759 mmHg 97%
08:00 -1°C° 0.1 mm 3 mps 759 mmHg 97%
09:00 -1°C° 0.1 mm 3 mps 759 mmHg 98%
10:00 0°C° 0.1 mm 3 mps 759 mmHg 98%
11:00 0°C° 0.1 mm 3 mps 759 mmHg 99%
12:00 +1°C° 0 mm 3 mps 759 mmHg 99%
13:00 +1°C° 0 mm 3 mps 759 mmHg 98%
14:00 +1°C° 0 mm 3 mps 759 mmHg 98%
15:00 +1°C° 0 mm 3 mps 759 mmHg 98%
16:00 +1°C° 0 mm 3 mps 759 mmHg 98%
17:00 +1°C° 0 mm 3 mps 759 mmHg 98%
18:00 +1°C° 0 mm 3 mps 759 mmHg 98%
19:00 +1°C° 0 mm 3 mps 759 mmHg 98%
20:00 +1°C° 0 mm 3 mps 759 mmHg 98%
21:00 +1°C° 0 mm 3 mps 759 mmHg 97%
22:00 0°C° 0 mm 4 mps 759 mmHg 96%
23:00 0°C° 0 mm 4 mps 760 mmHg 96%

4 December, Friday

Time Temperature Precipitation Wind Pressure Humidity
00:00 0°C° 0 mm 4 mps 760 mmHg 95%
01:00 0°C° 0 mm 4 mps 760 mmHg 95%
02:00 0°C° 0 mm 4 mps 760 mmHg 95%
03:00 0°C° 0 mm 4 mps 760 mmHg 95%
04:00 0°C° 0 mm 4 mps 760 mmHg 94%
05:00 0°C° 0 mm 4 mps 760 mmHg 94%
06:00 0°C° 0 mm 4 mps 760 mmHg 94%
07:00 -1°C° 0 mm 4 mps 760 mmHg 94%
08:00 -1°C° 0 mm 4 mps 760 mmHg 94%
09:00 0°C° 0 mm 4 mps 760 mmHg 93%
10:00 0°C° 0 mm 4 mps 760 mmHg 91%
11:00 0°C° 0 mm 4 mps 760 mmHg 90%
12:00 0°C° 0 mm 4 mps 760 mmHg 89%
13:00 0°C° 0 mm 4 mps 760 mmHg 87%
14:00 0°C° 0 mm 4 mps 759 mmHg 86%
15:00 0°C° 0 mm 4 mps 759 mmHg 87%
16:00 0°C° 0 mm 4 mps 759 mmHg 87%
17:00 0°C° 0 mm 5 mps 759 mmHg 88%
18:00 0°C° 0 mm 5 mps 759 mmHg 87%
19:00 0°C° 0 mm 5 mps 759 mmHg 86%
20:00 0°C° 0 mm 5 mps 759 mmHg 86%
21:00 -1°C° 0 mm 5 mps 759 mmHg 86%
22:00 -1°C° 0 mm 5 mps 759 mmHg 86%
23:00 -1°C° 0 mm 5 mps 759 mmHg 87%
Show more